| time (UTC) | temp F | wind direction | speed knots | gust knots | rain 1hr in | rain 24hr in | rain mn in | humidity % | barometer mb |
| 20260505064103 | 54 | 134 | 0.9 | 2.6 | 0.00 | 0.07 | 0.00 | 79 | 1009.6 |
| 20260505063020 | 54 | 134 | 0.9 | 2.6 | 0.00 | 0.07 | 0.00 | 77 | |
| 20260505062019 | 55 | 134 | 0.9 | 6.1 | 0.00 | 0.07 | 0.00 | 75 | |
| 20260505061016 | 56 | 164 | 1.7 | 7.8 | 0.00 | 0.07 | 0.00 | 73 | |
| 20260505060018 | 56 | 187 | 2.6 | 7.0 | 0.00 | 0.07 | 0.00 | 73 | |
| 20260505055039 | 56 | 190 | 2.6 | 8.7 | 0.00 | 0.07 | 0.00 | 72 | |
| 20260505054018 | 56 | 197 | 1.7 | 6.1 | 0.00 | 0.07 | 0.00 | 72 | |
| 20260505053018 | 56 | 167 | 0.9 | 6.1 | 0.00 | 0.07 | 0.00 | 71 | |
| 20260505052038 | 56 | 195 | 2.6 | 8.7 | 0.00 | 0.07 | 0.00 | 71 | |
| 20260505051037 | 57 | 213 | 1.7 | 8.7 | 0.00 | 0.07 | 0.00 | 70 | |
| 20260505041021 | 56 | 180 | 1.7 | 7.0 | 0.00 | 0.07 | 0.00 | 69 | |
| 20260505040019 | 57 | 186 | 2.6 | 11.3 | 0.00 | 0.07 | 0.00 | 68 | |
| 20260505035022 | 57 | 187 | 3.5 | 8.7 | 0.00 | 0.07 | 0.07 | 67 | |
| 20260505034019 | 57 | 184 | 2.6 | 7.8 | 0.00 | 0.07 | 0.07 | 66 | |
| 20260505033022 | 58 | 183 | 0.9 | 5.2 | 0.00 | 0.07 | 0.07 | 65 | |
| 20260505032022 | 58 | 182 | 1.7 | 7.0 | 0.00 | 0.07 | 0.07 | 64 | |
| 20260505031017 | 58 | 188 | 1.7 | 7.8 | 0.00 | 0.07 | 0.07 | 63 | |
| 20260505030016 | 58 | 176 | 3.5 | 8.7 | 0.00 | 0.07 | 0.07 | 63 | |
| 20260505025023 | 58 | 177 | 3.5 | 7.0 | 0.00 | 0.07 | 0.07 | 63 | |
| 20260505024015 | 58 | 185 | 1.7 | 7.0 | 0.00 | 0.07 | 0.07 | 63 | |
| 20260505023021 | 58 | 196 | 0.9 | 7.0 | 0.00 | 0.07 | 0.07 | 62 | |
| 20260505022020 | 59 | 202 | 2.6 | 7.0 | 0.00 | 0.07 | 0.07 | 62 | |
| 20260505021019 | 59 | 199 | 3.5 | 8.7 | 0.00 | 0.07 | 0.07 | 61 | |
| 20260505020021 | 59 | 189 | 4.3 | 9.6 | 0.00 | 0.07 | 0.07 | 60 | |
| 20260505015042 | 59 | 188 | 2.6 | 8.7 | 0.00 | 0.07 | 0.07 | 61 | |
| 20260505014043 | 59 | 174 | 1.7 | 6.1 | 0.00 | 0.07 | 0.07 | 61 | |
| 20260505013020 | 60 | 212 | 1.7 | 4.3 | 0.00 | 0.07 | 0.07 | 59 | |
| 20260505012024 | 60 | 209 | 1.7 | 12.2 | 0.00 | 0.07 | 0.07 | 58 | |
| 20260505011021 | 60 | 194 | 0.9 | 10.4 | 0.00 | 0.07 | 0.07 | 58 | |
| 20260505010018 | 61 | 191 | 4.3 | 10.4 | 0.00 | 0.07 | 0.07 | 58 | |
| 20260505005037 | 61 | 196 | 5.2 | 15.6 | 0.00 | 0.07 | 0.07 | 58 | |
| 20260505004021 | 61 | 180 | 3.5 | 10.4 | 0.00 | 0.07 | 0.07 | 58 | |
| 20260505003038 | 61 | 183 | 3.5 | 10.4 | 0.00 | 0.07 | 0.07 | 59 | |
| 20260505002019 | 61 | 184 | 4.3 | 14.8 | 0.00 | 0.07 | 0.07 | 59 | |
| 20260505001037 | 61 | 193 | 3.5 | 13.9 | 0.00 | 0.07 | 0.07 | 59 | |
| 20260505000016 | 61 | 176 | 3.5 | 14.8 | 0.00 | 0.07 | 0.07 | 58 | |
| 20260504235017 | 62 | 176 | 3.5 | 18.2 | 0.00 | 0.07 | 0.07 | 57 | |
| 20260504234021 | 63 | 175 | 3.5 | 7.0 | 0.00 | 0.07 | 0.07 | 55 | |
| 20260504233018 | 65 | 175 | 1.7 | 19.1 | 0.00 | 0.07 | 0.07 | 51 | |
| 20260504232017 | 65 | 183 | 5.2 | 16.5 | 0.00 | 0.07 | 0.07 | 50 | |
| 20260504231017 | 65 | 171 | 4.3 | 14.8 | 0.00 | 0.07 | 0.07 | 51 | |
| 20260504230016 | 66 | 173 | 1.7 | 8.7 | 0.00 | 0.07 | 0.07 | 51 | |
| 20260504225020 | 68 | 131 | 2.6 | 10.4 | 0.00 | 0.07 | 0.07 | 48 | |
| 20260504224043 | 69 | 171 | 2.6 | 10.4 | 0.00 | 0.07 | 0.07 | 45 | |
| 20260504223016 | 72 | 167 | 3.5 | 10.4 | 0.00 | 0.07 | 0.07 | 37 | |
| 20260504222020 | 72 | 195 | 5.2 | 17.4 | 0.00 | 0.07 | 0.07 | 35 | |
| 20260504221017 | 72 | 204 | 2.6 | 12.2 | 0.00 | 0.07 | 0.07 | 34 | |
| 20260504220016 | 72 | 200 | 3.5 | 15.6 | 0.00 | 0.07 | 0.07 | 34 | |
| 20260504215020 | 73 | 191 | 4.3 | 16.5 | 0.00 | 0.07 | 0.07 | 34 | |
| 20260504214045 | 73 | 177 | 3.5 | 13.0 | 0.00 | 0.07 | 0.07 | 33 | |
| 20260504213232 | 73 | 202 | 6.1 | 13.9 | 0.00 | 0.07 | 0.07 | 33 | |
| 20260504211518 | 72 | 197 | 3.5 | 12.2 | 0.00 | 0.07 | 0.07 | 33 | |
| 20260504210521 | 72 | 214 | 2.6 | 18.2 | 0.00 | 0.07 | 0.07 | 33 | |
| 20260504205519 | 73 | 221 | 7.0 | 14.8 | 0.00 | 0.07 | 0.07 | 31 | |
| 20260504204518 | 74 | 214 | 4.3 | 16.5 | 0.00 | 0.07 | 0.07 | 31 | |
| 20260504203519 | 74 | 207 | 5.2 | 16.5 | 0.00 | 0.07 | 0.07 | 31 | |
| 20260504202522 | 73 | 201 | 7.0 | 13.9 | 0.00 | 0.07 | 0.07 | 30 | |
| 20260504201540 | 74 | 251 | 4.3 | 13.9 | 0.00 | 0.07 | 0.07 | 30 | |
| 20260504200519 | 74 | 228 | 2.6 | 15.6 | 0.00 | 0.07 | 0.07 | 31 | |
| 20260504195543 | 73 | 219 | 6.1 | 15.6 | 0.07 | 0.07 | 0.07 | 31 | |
| 20260504194520 | 73 | 194 | 6.1 | 13.0 | 0.07 | 0.07 | 0.07 | 31 | |
| 20260504193521 | 72 | 209 | 3.5 | 20.9 | 0.07 | 0.07 | 0.07 | 31 | |
| 20260504192520 | 72 | 206 | 6.1 | 21.7 | 0.07 | 0.07 | 0.07 | 32 | |
| 20260504191522 | 72 | 199 | 7.0 | 21.7 | 0.07 | 0.07 | 0.07 | 31 | |
| 20260504190559 | 72 | 236 | 5.2 | 20.0 | 0.07 | 0.07 | 0.07 | 32 |